Location: Unspecified
(32.5099°N, 80.0190°W)
Time: 02:21:17
(UTC-04:00)

CZ-3 Stage 3 - Visible Passes

Search period start: 22 September 2017 00:00
Search period end: 02 October 2017 00:00
Orbit: 426 x 34772 km, 31.0° (Epoch: 21 September)

Date Brightness Start Highest point End Pass type
(mag) Time Alt. Az. Time Alt. Az. Time Alt. Az.
22 Sep 6.3 11:24:52 10° W 11:40:53 74° SSW 20:16:07 10° S visible
24 Sep 8.2 14:58:52 10° W 15:54:32 41° SW 20:21:04 10° SW visible
25 Sep 6.3 11:15:42 10° W 11:31:37 73° SSW 20:06:16 10° S visible
27 Sep 8.2 14:49:52 10° W 15:45:02 40° SW 20:07:08 10° SW visible
28 Sep 6.3 11:06:31 10° W 11:22:21 72° SSW 19:56:28 10° S visible
30 Sep 8.1 14:40:52 10° W 15:35:33 39° SW 19:53:13 10° SW visible
01 Oct 6.2 10:57:20 10° W 11:13:04 70° SSW 19:46:46 10° S visible
